Location: Hanover
(52.3667°N, 9.7167°E)
Time: 04:04:32
(UTC+02:00)

ARIANE 6 FM1 Upper Stage - Pass Details

Date: 27 September 2024
Orbit: 564 x 594 km, 62.0° (Epoch: 06 October)

Event Time Altitude Azimuth Distance (km) Brightness Sun altitude
Rises 22:27:09 0° 280° (W) 2,806 7.1 -29.2°
Reaches altitude 10° 22:29:44 10° 295° (WNW) 1,913 6.2 -29.5°
Maximum altitude 22:33:18 24° 350° (N) 1,228 4.8 -29.9°
Enters shadow 22:33:47 24° 1° (N) 1,244 4.7 -30.0°
